Вернуться в каталог

SL-12 R/B(2)

АктивенGEO
NORAD 15141·ROCKET BODY·🇷🇺 Russia

Запущен Jun 30, 1983 с Baikonur Cosmodrome

Loading…

TLE

СвежийSource: Space-Track

Эпоха: Sep 14, 2026, 14:21 UTC

1 15141U 83066F   26257.59806778 -.00000118  00000-0  00000-0 0  9998
2 15141   9.5688 312.7645 0009493 200.8938 171.3314  0.97618197118809

Отслеживайте SL-12 R/B(2) в реальном времени с AllMySat

Download on the App Store